Starlink 5189

operational
NORAD ID: 54052 Int'l Des: 2022-136 Owner: SPXS Country: US Constellation: starlink
LEOCIRCULAR

About Starlink 5189

Description loading...

Live Position

Loading 3D Globe...

Upcoming Passes

Altitude History

Altitude vs Time

uPlot chart will show altitude changes over time

Two-Line Element Set

1 54052U 22136B 25303.89837784 .00000465 00000-0 47270-4 0 9996
2 54052 53.2163 166.5925 0001427 86.8706 273.2450 15.08844422167815
Epoch: Oct 30, 2025 • Age: 23 hours

Current Status

Altitude 539.9 km
Velocity 7.60 km/s
Sub-Earth Point 21.41°N, 22.43°W
Launch Date Oct 20, 2022
Age 3 years
Type internet

Technical Details

Classification Payload
Mass 305.00 kg
Dry Mass 290.00 kg
Total Mass 305.00 kg
Length 0.20 m
Diameter 2.80 m
Span 9.00 m
Shape Box + pan
Manufacturer SPXS
Bus Type Starlink
Phase Status In Orbit
Owner/State SPXS/US

Large Constellations

Loading constellations...